When you browse on this site, cookies collect data to enhance your experience and personalize the content and advertising you see.
Visit our Privacy Policy to learn more. By continuing to use the site, you agree to this use of cookies and data.
  • In Denmark
  • List of Countries
  • For 7 days
  • Water Temperature
  • Satellite Maps
  • Weather Map
  • Weather Widgets
  • user-avatar
    Login

    Hourly Weather Kanye

    Today, 18 November, Sunday

    Time Temperature Precipitation Wind Pressure Humidity
    00:00 +28°C° 0 mm 2 mps 652 mmHg 19%
    01:00 +28°C° 0 mm 2 mps 652 mmHg 21%
    02:00 +27°C° 0 mm 2 mps 652 mmHg 25%
    03:00 +26°C° 0 mm 2 mps 652 mmHg 26%
    04:00 +26°C° 0 mm 2 mps 652 mmHg 27%
    05:00 +25°C° 0 mm 2 mps 652 mmHg 28%
    06:00 +27°C° 0 mm 4 mps 652 mmHg 25%
    07:00 +28°C° 0 mm 5 mps 653 mmHg 23%
    08:00 +30°C° 0 mm 7 mps 654 mmHg 21%
    09:00 +32°C° 0 mm 7 mps 654 mmHg 19%
    10:00 +34°C° 0 mm 6 mps 654 mmHg 18%
    11:00 +36°C° 0 mm 6 mps 655 mmHg 16%
    12:00 +37°C° 0 mm 5 mps 654 mmHg 15%
    13:00 +39°C° 0 mm 5 mps 654 mmHg 13%
    14:00 +38°C° 0 mm 4 mps 653 mmHg 13%
    15:00 +38°C° 0 mm 4 mps 653 mmHg 12%
    16:00 +38°C° 0 mm 4 mps 652 mmHg 12%
    17:00 +39°C° 0 mm 5 mps 652 mmHg 12%
    18:00 +36°C° 0.2 mm 4 mps 652 mmHg 15%
    19:00 +34°C° 0.2 mm 3 mps 652 mmHg 18%
    20:00 +31°C° 0.2 mm 3 mps 652 mmHg 21%
    21:00 +30°C° 0.1 mm 3 mps 652 mmHg 24%
    22:00 +29°C° 0.1 mm 4 mps 652 mmHg 27%
    23:00 +28°C° 0.1 mm 5 mps 653 mmHg 30%

    Tomorrow, 19 November, Monday

    Time Temperature Precipitation Wind Pressure Humidity
    00:00 +27°C° 0.1 mm 6 mps 653 mmHg 35%
    01:00 +26°C° 0.1 mm 6 mps 652 mmHg 40%
    02:00 +24°C° 0.1 mm 7 mps 652 mmHg 45%
    03:00 +23°C° 0 mm 7 mps 652 mmHg 47%
    04:00 +23°C° 0 mm 7 mps 652 mmHg 48%
    05:00 +22°C° 0 mm 7 mps 652 mmHg 50%
    06:00 +23°C° 0 mm 8 mps 653 mmHg 49%
    07:00 +24°C° 0 mm 9 mps 653 mmHg 47%
    08:00 +26°C° 0 mm 10 mps 653 mmHg 46%
    09:00 +27°C° 0 mm 9 mps 654 mmHg 43%
    10:00 +29°C° 0 mm 9 mps 654 mmHg 39%
    11:00 +31°C° 0 mm 9 mps 654 mmHg 35%
    12:00 +32°C° 0 mm 8 mps 654 mmHg 32%
    13:00 +33°C° 0 mm 8 mps 653 mmHg 29%
    14:00 +34°C° 0 mm 8 mps 653 mmHg 26%
    15:00 +34°C° 0 mm 7 mps 652 mmHg 25%
    16:00 +34°C° 0 mm 6 mps 652 mmHg 23%
    17:00 +35°C° 0 mm 5 mps 651 mmHg 22%
    18:00 +33°C° 0.1 mm 5 mps 651 mmHg 24%
    19:00 +30°C° 0.1 mm 4 mps 651 mmHg 27%
    20:00 +29°C° 0.1 mm 3 mps 650 mmHg 30%
    21:00 +28°C° 0.3 mm 4 mps 651 mmHg 33%
    22:00 +27°C° 0.3 mm 5 mps 651 mmHg 36%
    23:00 +26°C° 0.3 mm 6 mps 651 mmHg 39%

    Day after tomorrow, 20 November, Tuesday

    Time Temperature Precipitation Wind Pressure Humidity
    00:00 +24°C° 0.1 mm 6 mps 651 mmHg 42%
    01:00 +24°C° 0.1 mm 6 mps 650 mmHg 44%
    02:00 +23°C° 0.1 mm 6 mps 650 mmHg 46%
    03:00 +23°C° 0.4 mm 6 mps 650 mmHg 50%
    04:00 +22°C° 0.4 mm 5 mps 649 mmHg 53%
    05:00 +21°C° 0.4 mm 5 mps 649 mmHg 56%
    06:00 +23°C° 0 mm 6 mps 650 mmHg 52%
    07:00 +24°C° 0 mm 6 mps 651 mmHg 48%
    08:00 +26°C° 0 mm 7 mps 652 mmHg 43%
    09:00 +28°C° 0 mm 7 mps 652 mmHg 38%
    10:00 +30°C° 0 mm 7 mps 652 mmHg 34%
    11:00 +33°C° 0 mm 7 mps 652 mmHg 29%
    12:00 +34°C° 0 mm 7 mps 652 mmHg 26%
    13:00 +36°C° 0 mm 6 mps 651 mmHg 23%
    14:00 +38°C° 0 mm 6 mps 651 mmHg 19%
    15:00 +36°C° 0.2 mm 7 mps 650 mmHg 21%
    16:00 +35°C° 0.2 mm 7 mps 649 mmHg 22%
    17:00 +35°C° 0.2 mm 7 mps 648 mmHg 24%
    18:00 +32°C° 1 mm 6 mps 648 mmHg 32%
    19:00 +29°C° 1 mm 5 mps 648 mmHg 40%
    20:00 +26°C° 1 mm 5 mps 648 mmHg 48%
    21:00 +26°C° 0 mm 4 mps 649 mmHg 50%
    22:00 +25°C° 0 mm 3 mps 649 mmHg 51%
    23:00 +25°C° 0 mm 2 mps 650 mmHg 52%

    21 November, Wednesday

    Time Temperature Precipitation Wind Pressure Humidity
    00:00 +24°C° 0 mm 2 mps 649 mmHg 44%
    01:00 +24°C° 0 mm 3 mps 649 mmHg 35%
    02:00 +22°C° 0 mm 3 mps 649 mmHg 26%
    03:00 +21°C° 0 mm 3 mps 648 mmHg 24%
    04:00 +21°C° 0 mm 3 mps 648 mmHg 21%
    05:00 +20°C° 0 mm 3 mps 648 mmHg 19%
    06:00 +22°C° 0 mm 3 mps 649 mmHg 17%
    07:00 +25°C° 0 mm 3 mps 650 mmHg 16%
    08:00 +27°C° 0 mm 4 mps 651 mmHg 15%
    09:00 +28°C° 0 mm 3 mps 651 mmHg 13%
    10:00 +30°C° 0 mm 3 mps 652 mmHg 11%
    11:00 +33°C° 0 mm 3 mps 652 mmHg 9%
    12:00 +34°C° 0 mm 4 mps 652 mmHg 8%
    13:00 +36°C° 0 mm 4 mps 651 mmHg 8%
    14:00 +37°C° 0 mm 5 mps 651 mmHg 8%
    15:00 +37°C° 0 mm 5 mps 651 mmHg 8%
    16:00 +37°C° 0 mm 5 mps 650 mmHg 8%
    17:00 +36°C° 0 mm 6 mps 650 mmHg 8%
    18:00 +34°C° 0 mm 5 mps 650 mmHg 10%
    19:00 +31°C° 0 mm 3 mps 650 mmHg 11%
    20:00 +29°C° 0 mm 2 mps 650 mmHg 12%
    21:00 +28°C° 0 mm 2 mps 650 mmHg 13%
    22:00 +28°C° 0 mm 2 mps 650 mmHg 14%
    23:00 +27°C° 0 mm 2 mps 650 mmHg 15%

    22 November, Thursday

    Time Temperature Precipitation Wind Pressure Humidity
    00:00 +26°C° 0 mm 2 mps 649 mmHg 16%
    01:00 +25°C° 0 mm 2 mps 649 mmHg 17%
    02:00 +24°C° 0 mm 2 mps 648 mmHg 18%
    03:00 +24°C° 0 mm 2 mps 648 mmHg 19%
    04:00 +24°C° 0 mm 2 mps 648 mmHg 20%
    05:00 +23°C° 0 mm 2 mps 648 mmHg 21%
    06:00 +25°C° 0 mm 3 mps 649 mmHg 20%
    07:00 +27°C° 0 mm 4 mps 650 mmHg 19%
    08:00 +29°C° 0 mm 5 mps 651 mmHg 18%
    09:00 +32°C° 0 mm 5 mps 652 mmHg 19%
    10:00 +33°C° 0 mm 5 mps 652 mmHg 19%
    11:00 +35°C° 0 mm 5 mps 652 mmHg 20%
    12:00 +36°C° 0 mm 4 mps 652 mmHg 17%
    13:00 +37°C° 0 mm 4 mps 651 mmHg 14%
    14:00 +38°C° 0 mm 3 mps 651 mmHg 11%
    15:00 +38°C° 0 mm 3 mps 650 mmHg 11%
    16:00 +38°C° 0 mm 3 mps 650 mmHg 10%
    17:00 +37°C° 0 mm 3 mps 650 mmHg 10%
    18:00 +35°C° 0 mm 3 mps 649 mmHg 15%
    19:00 +33°C° 0 mm 3 mps 649 mmHg 20%
    20:00 +29°C° 0 mm 4 mps 649 mmHg 25%
    21:00 +28°C° 0 mm 4 mps 649 mmHg 30%
    22:00 +27°C° 0 mm 4 mps 649 mmHg 36%
    23:00 +26°C° 0 mm 4 mps 649 mmHg 41%

    23 November, Friday

    Time Temperature Precipitation Wind Pressure Humidity
    00:00 +26°C° 0 mm 4 mps 649 mmHg 40%
    01:00 +26°C° 0 mm 4 mps 649 mmHg 39%
    02:00 +26°C° 0 mm 4 mps 649 mmHg 39%
    03:00 +25°C° 0.1 mm 5 mps 649 mmHg 45%
    04:00 +23°C° 0.1 mm 6 mps 649 mmHg 52%
    05:00 +22°C° 0.1 mm 7 mps 649 mmHg 59%
    06:00 +22°C° 0 mm 7 mps 650 mmHg 61%
    07:00 +22°C° 0 mm 8 mps 650 mmHg 63%
    08:00 +23°C° 0 mm 8 mps 651 mmHg 64%
    09:00 +24°C° 0 mm 8 mps 651 mmHg 59%
    10:00 +27°C° 0 mm 8 mps 652 mmHg 54%
    11:00 +28°C° 0 mm 8 mps 652 mmHg 49%
    12:00 +28°C° 0.2 mm 8 mps 652 mmHg 47%
    13:00 +28°C° 0.2 mm 7 mps 651 mmHg 45%
    14:00 +28°C° 0.2 mm 7 mps 651 mmHg 43%
    15:00 +27°C° 2 mm 7 mps 650 mmHg 49%
    16:00 +26°C° 2 mm 6 mps 650 mmHg 55%
    17:00 +23°C° 2 mm 5 mps 649 mmHg 60%
    18:00 +23°C° 1.1 mm 6 mps 649 mmHg 58%
    19:00 +23°C° 1.1 mm 6 mps 649 mmHg 56%
    20:00 +23°C° 1.1 mm 7 mps 649 mmHg 53%
    21:00 +22°C° 0 mm 6 mps 649 mmHg 55%
    22:00 +22°C° 0 mm 5 mps 650 mmHg 56%
    23:00 +22°C° 0 mm 4 mps 651 mmHg 58%
    Show more